Showing default

OTB, 44341

Orbit data source: Space-Track

OTB, 44341 is a payload satellite owned by GA-EMS (US) in LEO that was launched on Tue, 25 Jun 2019 UTC via an FALCON HEAVY launch vehicle from the Air Force Eastern Test Range (AFETR). Payload-class satellites include a variety of spacecraft equipped with specific instruments for various scientific and technological missions. These include communications satellites like Starlink; space stations such as the ISS; scientific satellites like the Hubble; Earth observation satellites from companies like Planet Labs, Umbra, and HawkEye 360; GPS; miniature CubeSats for education and research; and military/defense satellites.

Not visible in the next 10 days
Identifier
44341, 2019-036C
Orbit
LEO
Country
Flag of USUS
Related business
Manufacturer
GA-EMS
Mission
Operational Commercial Tech/Misc
Bus & Motor
SSTL-150, Unknown motor
Mass
100 kg wet, 100 kg dry
Launch date (UTC)
2019-06-25 (7 years ago)
Launch vehicle
FALCON HEAVY
Launch site
Air Force Eastern Test Range (AFETR)
Object type
Payload
Rocket body
Debris
Shape & HBR
Box + 4 Pan, 1.5 m
Radar Cross Section
1.570 m², Large (>1 m²)

Expand to show TLE details & history
Last TLE update: 11 hours ago

TLE from 11 hours ago
0 OTB
1 44341U 19036C   26266.72586108  .00000935  00000-0  15509-3 0  9994
2 44341  23.9963  75.9929 0010895   9.2666 350.8026 14.57356024385763
Epoch: 2026-09-23T17:25Z
TLE epoch observation values (Epoch: 2026-09-23T17:25:14.397Z)
Latitude
-0°
Longitude
172.11005°
Altitude
692.039 km
Speed
7.517 km/s
True Right ascension
05h 03m 58s
True Declination
0° 00' 00"
Sunlit
Object was in daylight at epoch
Visualization orbit readout
Latitude
Unknown
Longitude
Unknown
Altitude
Unknown
Speed
Unknown
Apparent Right ascension
Unknown
Apparent Declination
Unknown
Sunlit
N/A
Visualization observer readout
Local Sidereal Time
21:56:33
Azimuth
Unknown
Elevation
Unknown
Doppler factor
Unknown
Orbital elements
Apogee altitude
714.127 km
Perigee altitude
698.69 km
Semi-major axis
7,084.545 km
Eccentricity
0.00109
Inclination
23.9963°
RAAN
75.9929°
Arg. of periapsis
9.2666°
True anomaly
350.78262°
Mean anomaly
350.8026°
Eccentric anomaly
350.79261°
Mean motion
3.63978 °/min
Orbital period
98.91 mins
BSTAR
0.00015509
Loading maneuver chart data...
Computing Atmospheric mass density...

Documentation

Showing up to 5 results
|